Stations météo

réclame
Mon MeteoGroup
Avignon, France (7563): Température de l'air & dewpoint: 13.06.2019 07:00:00 - 19.06.2019 07:00:00 (CEST)Avignon, France (7563): Température de l'air 5cm: 13.06.2019 07:00:00 - 19.06.2019 07:00:00 (CEST)Avignon, France (7563): Vitesse du vent & gusts: 13.06.2019 07:00:00 - 19.06.2019 07:00:00 (CEST)Avignon, France (7563): Direction du vent: 13.06.2019 07:00:00 - 19.06.2019 07:00:00 (CEST)Avignon, France (7563): reduced air pressure: 13.06.2019 07:00:00 - 19.06.2019 07:00:00 (CEST)Avignon, France (7563): visibility: 13.06.2019 07:00:00 - 19.06.2019 07:00:00 (CEST)Avignon, France (7563): Quantités de précipitations: 13.06.2019 07:00:00 - 19.06.2019 07:00:00 (CEST)
Date & Time tt [°C] td [°C] tt 5cm [°C] ff [km/h] ff [knt] fx [km/h] fx [knt] dd ppp [hPa] vv [km] rr [mm]
19.06.2019 07:00:00 18,2 9,5 15,9 11 6 19 10 SSE 1013,7 39 0,0
19.06.2019 06:00:00 18,0 8,8 13,0 8 4 22 12 SE 1013,8 60 0,0
19.06.2019 05:00:00 18,1 9,4 12,0 7 4 21 11 SE 1013,8 60 0,0
19.06.2019 04:00:00 14,9 9,7 10,9 8 5 16 9 SSE 1014,1 60 0,0
19.06.2019 03:00:00 14,9 10,3 11,4 7 4 16 8 SSE 1014,2 60 0,0
19.06.2019 02:00:00 16,3 10,4 10,3 8 4 18 10 SE 1014,3 60 0,0
19.06.2019 01:00:00 16,2 10,7 10,4 4 2 7 4 SSE 1014,7 59 0,0
19.06.2019 00:00:00 16,5 10,8 11,4 4 2 6 3 E 1015,3 60 0,0
18.06.2019 23:00:00 18,4 10,2 13,1 3 2 9 5 ESE 1015,5 58 0,0
18.06.2019 22:00:00 20,9 10,1 14,8 5 3 14 8 S 1015,0 60 0,0
18.06.2019 21:00:00 23,4 10,8 22,6 10 6 18 10 S 1014,7 60 0,0
18.06.2019 20:00:00 26,8 11,7 28,6 11 6 27 15 SSW 1014,3 56 0,0
18.06.2019 19:00:00 28,1 11,2 30,6 19 11 40 22 S 1014,2 39 0,0
18.06.2019 18:00:00 29,7 10,3 30,6 21 11 37 20 S 1014,0 41 0,0
18.06.2019 17:00:00 30,7 7,8 32,2 24 13 39 21 S 1013,9 35 0,0
18.06.2019 16:00:00 31,1 8,1 35,3 24 13 40 21 S 1014,0 37 0,0
18.06.2019 15:00:00 30,9 8,0 32,6 23 12 35 19 S 1014,5 44 0,0
18.06.2019 14:00:00 31,3 10,1 32,2 23 13 36 19 S 1014,7 53 0,0
18.06.2019 13:00:00 30,4 9,8 33,2 15 8 29 15 S 1014,7 20 0,0
18.06.2019 12:00:00 29,8 12,2 30,7 15 8 27 15 S 1014,8 60 0,0
18.06.2019 11:00:00 27,9 13,8 27,4 9 5 19 10 S 1014,8 58 0,0
18.06.2019 10:00:00 25,0 14,8 23,0 5 3 11 6 S 1015,2 20 0,0
18.06.2019 09:00:00 22,1 14,5 20,8 4 2 9 5 NNW 1015,4 39 0,0
18.06.2019 08:00:00 19,6 13,3 14,7 0 0 9 5 N 1015,4 35 0,0
18.06.2019 07:00:00 15,3 13,0 12,0 8 4 11 6 NE 1015,4 23 0,2
18.06.2019 06:00:00 14,3 13,2 9,9 5 3 7 4 NW 1015,3 8 0,0
18.06.2019 05:00:00 14,7 13,6 9,8 3 2 8 4 SW 1015,5 12 0,0
18.06.2019 04:00:00 14,5 13,0 11,1 3 2 7 4 N 1015,6 7 0,0
18.06.2019 03:00:00 14,3 12,3 11,1 4 2 8 4 ESE 1015,7 18 0,0
18.06.2019 02:00:00 15,5 13,3 11,4 4 2 6 3 E 1016,0 10 0,0
18.06.2019 01:00:00 16,6 14,1 12,7 5 3 10 6 NE 1016,2 24 0,0
18.06.2019 00:00:00 17,2 14,7 13,5 4 2 8 4 N 1016,2 26 0,0
17.06.2019 23:00:00 19,5 14,9 14,8 4 2 14 8 S 1015,7 40 0,0
17.06.2019 22:00:00 22,2 16,2 19,2 7 4 19 11 SW 1015,4 55 0,0
17.06.2019 21:00:00 24,8 15,7 24,3 14 8 23 12 S 1014,5 46 0,0
17.06.2019 20:00:00 27,9 16,2 29,4 16 9 29 15 S 1014,1 39 0,0
17.06.2019 19:00:00 29,8 13,5 32,2 21 12 30 16 S 1013,6 60 0,0
17.06.2019 18:00:00 31,9 11,1 35,3 14 7 25 13 S 1013,6 60 0,0
17.06.2019 17:00:00 32,4 10,4 36,9 11 6 29 16 WSW 1013,8 60 0,0
17.06.2019 16:00:00 31,7 11,5 36,5 14 7 27 15 W 1014,3 59 0,0
17.06.2019 15:00:00 29,9 12,3 35,5 9 5 22 12 NW 1014,8 60 0,0
17.06.2019 14:00:00 29,6 13,8 34,4 6 4 21 12 NW 1015,1 20 0,0
17.06.2019 13:00:00 28,2 14,4 - 9 5 34 18 SE 1015,8 60 0,0
17.06.2019 12:00:00 26,5 13,6 28,7 8 4 18 10 NNE 1016,2 51 0,0
17.06.2019 11:00:00 24,9 13,4 25,8 8 4 17 9 NNE 1016,3 20 0,0
17.06.2019 10:00:00 23,1 13,3 22,6 10 5 19 10 N 1016,4 60 0,0
17.06.2019 09:00:00 21,6 12,7 20,8 12 6 28 15 N 1016,5 50 0,0
17.06.2019 08:00:00 20,2 11,9 18,1 22 12 35 19 N 1016,0 28 0,0
17.06.2019 07:00:00 18,6 11,4 16,4 14 7 31 17 NNW 1015,8 60 0,0
17.06.2019 06:00:00 18,2 11,3 16,4 18 10 33 18 NNW 1015,5 60 0,0
17.06.2019 05:00:00 18,6 11,4 16,9 19 10 38 21 N 1015,1 60 0,0
17.06.2019 04:00:00 19,0 11,6 17,5 24 13 36 19 N 1015,0 60 0,0
17.06.2019 03:00:00 19,6 11,6 18,2 23 12 48 26 N 1015,0 60 0,0
17.06.2019 02:00:00 20,0 11,7 18,4 26 14 40 22 N 1015,6 60 0,0
17.06.2019 01:00:00 20,4 12,1 18,9 20 11 43 23 NNW 1015,7 60 0,0
17.06.2019 00:00:00 21,3 11,9 19,7 27 15 50 27 N 1015,6 60 0,0
16.06.2019 23:00:00 22,0 11,4 - 26 14 42 23 N 1015,7 60 -
16.06.2019 22:00:00 22,7 11,7 21,3 29 16 47 25 NNW 1015,4 60 0,0
16.06.2019 21:00:00 23,7 12,3 23,0 28 15 56 30 NNW 1015,1 31 0,0
16.06.2019 20:00:00 25,1 12,7 26,0 34 19 54 29 NNW 1015,0 31 0,0
16.06.2019 19:00:00 26,3 12,7 28,4 35 19 60 33 NNW 1014,9 26 0,0
16.06.2019 18:00:00 27,1 12,7 30,1 35 19 55 30 NNW 1014,9 15 0,0
16.06.2019 17:00:00 27,5 13,1 30,8 34 19 59 32 NNW 1015,3 11 0,0
16.06.2019 16:00:00 27,0 12,6 31,4 33 18 53 29 NNW 1015,6 13 0,0
16.06.2019 15:00:00 26,5 12,2 31,0 35 19 56 30 NNW 1016,0 12 0,0
16.06.2019 14:00:00 25,9 12,0 29,9 39 21 66 36 NNW 1016,2 15 0,0
16.06.2019 13:00:00 24,9 11,8 28,0 37 20 61 33 N 1016,7 16 0,0
16.06.2019 12:00:00 23,2 11,9 24,7 40 22 61 33 NNW 1017,4 20 0,0
16.06.2019 11:00:00 22,0 11,4 23,2 37 20 61 33 NNW 1017,8 20 0,0
16.06.2019 10:00:00 21,4 11,7 20,9 31 17 61 33 N 1017,5 23 0,0
16.06.2019 09:00:00 20,1 11,3 19,2 36 19 59 32 N 1017,8 31 0,0
16.06.2019 08:00:00 18,6 11,4 16,7 29 15 50 27 NNW 1017,9 37 0,0
16.06.2019 07:00:00 17,0 11,5 15,0 24 13 42 23 NNW 1018,1 44 0,0
16.06.2019 06:00:00 16,1 11,0 15,0 27 14 50 27 NNW 1017,8 60 0,0
16.06.2019 05:00:00 16,2 11,6 15,0 23 12 45 25 NNW 1017,9 60 0,0
16.06.2019 04:00:00 16,6 11,9 15,3 26 14 47 26 NNW 1018,1 60 0,0
16.06.2019 03:00:00 16,6 11,9 15,3 20 11 44 24 N 1018,2 60 0,0
16.06.2019 02:00:00 16,7 11,8 15,4 24 13 39 21 NNW 1018,5 60 0,0
16.06.2019 01:00:00 17,2 11,9 15,7 22 12 39 21 NNW 1018,5 60 0,0
16.06.2019 00:00:00 18,0 12,0 16,5 25 14 44 24 NNW 1018,3 60 0,0
15.06.2019 23:00:00 17,6 12,7 16,4 25 13 35 19 NNW 1017,8 60 0,0
15.06.2019 22:00:00 18,5 13,1 17,3 19 11 29 16 NNW 1017,2 60 0,0
15.06.2019 21:00:00 20,1 13,1 19,6 18 10 32 18 NNW 1016,7 60 0,0
15.06.2019 20:00:00 22,3 13,4 21,2 21 11 33 18 NNW 1016,5 58 0,0
15.06.2019 19:00:00 22,1 14,2 22,2 21 11 44 24 NNW 1016,7 40 0,0
15.06.2019 18:00:00 22,2 13,0 22,4 24 13 46 25 N 1016,4 37 0,0
15.06.2019 17:00:00 26,1 17,2 28,5 10 5 29 16 SW 1016,0 31 0,0
15.06.2019 16:00:00 26,3 17,4 27,8 18 10 34 19 SSW 1016,2 37 0,0
15.06.2019 15:00:00 24,7 17,2 25,8 18 10 35 19 SW 1016,1 29 0,0
15.06.2019 14:00:00 24,0 17,5 25,3 22 12 32 17 SW 1016,1 20 0,0
15.06.2019 13:00:00 24,6 17,6 28,5 14 8 26 14 S 1016,0 20 0,0
15.06.2019 12:00:00 23,2 17,6 23,1 4 2 18 10 SW 1016,1 19 0,0
15.06.2019 11:00:00 21,5 16,9 22,1 11 6 18 10 WSW 1016,4 19 0,0
15.06.2019 10:00:00 22,0 16,9 23,0 5 3 19 10 NW 1016,1 20 0,0
15.06.2019 09:00:00 21,0 16,8 20,9 9 5 17 9 NNW 1015,6 19 0,0
15.06.2019 08:00:00 20,1 16,7 19,1 5 3 12 6 NNE 1015,3 18 0,0
15.06.2019 07:00:00 18,9 15,9 18,0 6 4 11 6 SSE 1015,1 17 0,0
15.06.2019 06:00:00 18,6 16,2 16,0 6 3 16 9 SSE 1014,8 20 0,0
15.06.2019 05:00:00 18,8 16,0 17,3 11 6 23 12 SE 1014,3 19 0,0
15.06.2019 04:00:00 19,1 16,5 18,2 13 7 34 18 SSE 1014,0 16 0,0
15.06.2019 03:00:00 20,0 17,4 19,7 18 10 29 16 S 1014,0 12 0,0
15.06.2019 02:00:00 20,7 18,6 19,7 2 1 11 6 SSE 1013,6 4,6 0,0
15.06.2019 01:00:00 20,9 18,3 19,8 3 2 17 9 SE 1013,3 7 0,0
15.06.2019 00:00:00 21,9 17,7 21,4 13 7 19 11 SSW 1013,0 14 0,0
14.06.2019 23:00:00 22,0 17,6 21,0 10 5 15 8 WSW 1012,3 11 0,0
14.06.2019 22:00:00 22,3 17,4 21,6 11 6 41 22 ESE 1011,0 9 0,0
14.06.2019 21:00:00 22,4 17,3 22,1 24 13 45 24 S 1010,7 14 0,0
14.06.2019 20:00:00 24,1 16,4 24,0 28 15 42 23 S 1009,3 15 0,0
14.06.2019 19:00:00 28,1 14,7 30,0 8 5 21 11 NNW 1007,9 41 0,0
14.06.2019 18:00:00 28,2 14,8 28,7 14 7 23 13 N 1007,0 44 0,0
14.06.2019 17:00:00 27,6 14,6 27,1 14 8 32 17 NNW 1007,5 56 0,0
14.06.2019 16:00:00 26,2 14,3 25,2 11 6 34 18 WNW 1006,8 57 0,0
14.06.2019 15:00:00 26,2 13,0 28,2 14 7 28 15 WNW 1008,8 49 0,0
14.06.2019 14:00:00 25,5 12,3 27,5 16 9 38 20 N 1009,5 57 0,0
14.06.2019 13:00:00 22,9 11,6 23,3 25 13 39 21 NNW 1010,2 60 0,0
14.06.2019 12:00:00 20,3 11,5 20,3 21 11 42 23 NNW 1011,6 60 0,0
14.06.2019 11:00:00 18,8 10,6 19,7 17 9 28 15 NW 1011,8 48 0,0
14.06.2019 10:00:00 20,5 11,4 20,2 8 5 25 14 NNW 1011,8 57 0,0
14.06.2019 09:00:00 17,4 12,5 15,3 9 5 15 8 N 1012,3 49 0,0
14.06.2019 08:00:00 15,8 10,5 14,2 9 5 23 12 N 1013,0 58 0,0
14.06.2019 07:00:00 14,8 9,8 13,3 7 4 16 9 NE 1013,4 56 0,0
14.06.2019 06:00:00 14,7 10,9 11,8 8 4 14 8 WNW 1012,7 58 0,0
14.06.2019 05:00:00 15,0 11,9 11,5 9 5 13 7 N 1012,2 49 0,0
14.06.2019 04:00:00 14,5 12,2 11,1 5 3 10 5 N 1013,3 46 0,0
14.06.2019 03:00:00 14,2 12,1 11,7 6 3 8 5 SSE 1014,2 45 0,0
14.06.2019 02:00:00 15,0 12,3 11,8 6 3 9 5 E 1014,4 55 0,0
14.06.2019 01:00:00 15,6 12,5 14,1 4 2 14 7 NE 1015,1 60 0,0
14.06.2019 00:00:00 15,5 12,1 13,8 3 1 10 5 NNE 1015,0 60 0,0
13.06.2019 23:00:00 16,0 11,2 12,9 4 2 8 5 SSE 1015,1 60 0,0
13.06.2019 22:00:00 17,6 11,2 14,3 2 1 14 7 E 1015,4 60 0,0
13.06.2019 21:00:00 20,0 10,1 18,9 6 4 26 14 SSE 1014,3 60 0,0
13.06.2019 20:00:00 21,7 8,6 21,4 17 9 30 16 S 1014,1 60 0,0
13.06.2019 19:00:00 23,5 9,5 24,1 18 10 32 18 SSW 1014,0 44 0,0
13.06.2019 18:00:00 26,0 10,2 28,3 16 9 29 16 S 1013,7 57 0,0
13.06.2019 17:00:00 27,4 8,3 31,5 16 9 29 16 S 1013,8 60 0,0
13.06.2019 16:00:00 27,1 5,9 31,7 15 8 27 14 SSW 1014,3 52 0,0
13.06.2019 15:00:00 27,3 8,7 33,1 11 6 29 15 SSE 1014,7 60 0,0
13.06.2019 14:00:00 26,1 8,1 31,8 12 6 29 16 S 1015,0 60 0,0
13.06.2019 13:00:00 24,9 10,0 30,1 11 6 22 12 S 1015,4 60 0,0
13.06.2019 12:00:00 22,6 9,0 24,9 5 3 17 9 SW 1015,8 60 0,0
13.06.2019 11:00:00 20,1 10,8 21,2 6 3 22 12 S 1016,2 41 0,0
13.06.2019 10:00:00 18,2 10,3 17,8 7 4 15 8 E 1016,2 46 0,0
13.06.2019 09:00:00 16,5 9,4 15,0 5 3 11 6 E 1016,5 51 0,0
13.06.2019 08:00:00 14,3 10,1 10,3 4 2 9 5 NNE 1016,2 33 0,0
13.06.2019 07:00:00 11,3 8,7 5,5 4 2 8 4 NW 1015,9 43 0,0

tt = Température de l'air
td = dewpoint
tt 5cm = Température de l'air 5cm
ff = Vitesse du vent
fx = gusts
dd = Direction du vent
ppp = reduced air pressure
vv = visibility
rr = Quantités de précipitations

stations d'obs. à proximité